Regional Weather Roundup
Issued by NWS

Home | Current Version | Previous Version | Graphics & Text | Print | Product List | Glossary On
Versions: 1 2 3 4 5 6 7 8 9 10 11 12 13 14 15 16 17 18 19 20 21 22 23 24 25 26 27 28 29 30 31 32 33 34 35 36 37 38 39 40 41 42 43 44 45 46 47 48 49 50
000
ASUS43 KDTX 280901
RWRMI
MICHIGAN HOURLY REGIONAL WEATHER ROUNDUP
NATIONAL WEATHER SERVICE DETROIT/PONTIAC MI
400 AM EST SAT FEB 28 2015

NOTE: "FAIR" INDICATES FEW OR NO CLOUDS BELOW 12,000 FEET WITH NO
SIGNIFICANT WEATHER AND/OR OBSTRUCTION TO VISIBILITY.

MIZ047>049-052>055-059>063-066>070-074>076-081>083-281000-
SOUTHEAST LOWER MICHIGAN

CITY           SKY/WX    TMP DP  RH WIND       PRES   REMARKS
ADRIAN         PTCLDY    -7 -11  83 CALM      30.69R
ALMA           PTCLDY     4  -2  75 S6        30.63S WCI  -7
ANN ARBOR      PTCLDY   -10 -16  74 CALM      30.67S
BAD AXE        CLEAR      0  -3  87 SW5       30.62S WCI -10
CARO           CLEAR     -7 -11  81 SW3       30.64R
DETROIT CITY   CLEAR      8  -2  63 SW5       30.69S WCI   0
DETROIT        PTCLDY     3  -5  69 S5        30.70R WCI  -6
FLINT          CLEAR      5  -4  66 SW6       30.65S WCI  -6
GROSSE ILE     PTCLDY     3  -4  72 CALM      30.69R
HILLSDALE      PTCLDY     1  -5  77 CALM      30.63S
HOWELL         CLEAR      2  -4  76 S3        30.64R

CITY           SKY/WX    TMP DP  RH WIND       PRES   REMARKS
JACKSON        PTCLDY    -3  -8  79 SW6       30.65R WCI -15
LAMBERTVILLE   PTCLDY     0  -8  71 CALM      30.70S
LANSING        CLEAR      4  -4  69 SW8       30.65S WCI  -9
LAPEER         FAIR     -13 -17  79 CALM      30.65R
MASON          CLEAR      0  -4  80 CALM      30.65S
MONROE         PTCLDY    -2  -6  84 CALM      30.68S
MT. CLEMENS    CLEAR      2  -3  79 SW2       30.66S
PONTIAC        CLEAR     -3  -9  75 CALM      30.63S
PORT HOPE        N/A      5  -2  72 SW6       30.60S WCI  -6
PORT HURON     PTCLDY   -11 -17  77 CALM      30.68S
TRI CITIES     CLEAR      7  -1  70 SW8       30.64S WCI  -6
TROY           CLEAR      7  -2  67 CALM      30.69S
SAGINAW HB     CLEAR      7   1  78 S10       30.65R WCI  -8
$$
MIZ043>046-050>051-056>058-064>065-071>073-077>080-281000-
SOUTHWEST LOWER MICHIGAN

CITY           SKY/WX    TMP DP  RH WIND       PRES   REMARKS
BATTLE CREEK   PTCLDY     2  -6  69 SW6       30.65S WCI  -9
BENTON HARBOR  PTCLDY    -3  -6  87 CALM      30.67F
BIG RAPIDS     CLEAR     -4  -7  87 CALM      30.57S
COLDWATER      PTCLDY   -10 -14  79 CALM      30.65F
FREMONT        FLURRIES   1  -3  83 CALM      30.61S
HOLLAND        CLEAR      3  -3  76 S3        30.66S
GRAND RAPIDS   CLEAR      4  -2  76 S9        30.64S WCI -10
IONIA          FAIR       4  -2  75 SW7       30.63R WCI  -8
KALAMAZOO      PTCLDY    -2  -6  83 S6        30.66S WCI -14
LUDINGTON      CLEAR     16   5  61 W6        30.60S WCI   8
MARSHALL       PTCLDY    -3  -6  85 CALM      30.65S
MOUNT PLEASANT CLEAR      6   1  76 SW7       30.61S WCI  -5
MUSKEGON       MOCLDY    15   6  67 SW9       30.63F WCI   3
SOUTH HAVEN    PTCLDY     5  -2  75 S5        30.66F WCI  -4
$$
MIZ016>042-281000-
NORTHERN LOWER MICHIGAN

CITY           SKY/WX    TMP DP  RH WIND       PRES   REMARKS
ALPENA         CLEAR      5  -2  72 SW7       30.56R WCI  -7
BEAVER ISLAND  CLEAR      9   5  81 SW5       30.52S WCI   1
BELLAIRE       CLEAR     -2  -6  83 CALM      30.57S
CADILLAC       CLEAR    -11 -18  70 CALM      30.51S
CHARLEVOIX     CLEAR      9   1  69 CALM      30.57S
FRANKFORT      CLEAR     16   6  66 W7        30.57S WCI   6
GAYLORD        CLEAR     -1  -3  91 SW6       30.48S WCI -13
GRAYLING       CLEAR    -12 -17  78 W3        30.53S
HARBOR SPRINGS CLEAR      4  -1  80 W3        30.53S
HOUGHTON LAKE  CLEAR     -3  -7  82 SW3       30.54S
MANISTEE       CLEAR     -4  -9  77 E3        30.58F
OSCODA         CLEAR      0  -5  80 SW8       30.58S WCI -15
PELLSTON       CLEAR      9   1  70 CALM      30.52S
ROGERS CITY    CLEAR      8   3  82 SW8       30.54S WCI  -5
TRAVERSE CITY  CLEAR     -3  -7  82 CALM      30.56R
$$
MIZ007>008-015-281000-
EASTERN UPPER MICHIGAN

CITY           SKY/WX    TMP DP  RH WIND       PRES   REMARKS
KINROSS        CLEAR      3   1  92 SW6       30.48S WCI  -8
MACKINAC ISLAN CLEAR      9   2  76 SW9       30.50S WCI  -5
NEWBERRY       CLEAR      2  -4  75 W7        30.46F WCI -10
S. S. MARIE    CLEAR     -5 -11  75 NE3       30.49R
MUNISING         N/A     -2  -9  72 S8        30.49S WCI -17
$$
MIZ004>006-011>014-085-281000-
CENTRAL UPPER MICHIGAN

CITY           SKY/WX    TMP DP  RH WIND       PRES   REMARKS
MANISTIQUE     PTCLDY     6  -4  62 W3        30.50S
ESCANABA       CLEAR      3  -6  66 SW3       30.53S
MENOMINEE      CLEAR      3  -6  66 SW6       30.55S WCI  -8
SAWYER-GWINN   CLEAR     -1 -10  66 SW6       30.43S WCI -13
$$
MIZ001>003-009>011-084-281000-
WESTERN UPPER MICHIGAN

CITY           SKY/WX    TMP DP  RH WIND       PRES   REMARKS
IRON MOUNTAIN  CLEAR     -4 -10  75 CALM      30.46S
HOUGHTON       CLEAR      8  -5  55 W13       30.40R WCI  -8
COPPER HARBOR    N/A     15  -1  49 NW8       30.41S WCI   4
IRONWOOD       CLEAR      3  -2  78 SW12      30.42S WCI -13
$$

ABBREVIATIONS USED IN REMARKS
   TC - TEMPERATURE IN CELSIUS
  WCI - WIND CHILL INDEX
   HX - HEAT INDEX
  VSB - VISIBILITY




USA.gov is the U.S. government's official web portal to all federal, state and local government web resources and services.